Dewpoint
62 57 57 53 51 43 40 42 24 26 29 23 22 22 22 20 18 14 8 15 10 18 15 12 6 11 10 13 54 56 57 54 56 53 53 60 67 67 68 69 69 70 72 73 74 74 74 75 75 74 74 75 74 74 74 74 74 74 74 74 74 74 73 73 73 73 72 72 72 72 72 71 71 71 71 70 69 69 68 68 68 68 67 67 66 66 67 68 68 67 67 66 66 67 67 68 68
50 51 49 49 45 44 40 37 31 22 29 22 21 21 19 18 11 1 7 9 11 18 12 10 7 6 12 18 57 57 56 58 59 59 62 65 66 67 68 69 70 70 71 72 73 74 74 75 74 74 75 75 74 74 74 74 74 74 73 73 74 74 73 73 73 72 72 72 72 72 71 71 71 71 71 70 70 69 70 68 68 68 67 67 67 67 68 68 68 68 67 67 67 66 67 67 67
52 51 47 45 45 44 39 35 28 21 20 20 20 18 18 2 2 4 6 7 10 15 11 12 10 8 17 36 55 55 55 59 60 62 64 65 65 66 68 69 70 70 71 71 72 73 74 74 74 74 75 74 74 74 74 74 73 73 73 73 73 73 73 73 73 72 72 72 72 72 71 71 71 71 70 69 70 71 70 69 68 67 67 67 66 67 69 69 69 69 69 68 67 67 67 67 67
59 52 46 50 36 39 35 34 32 25 18 13 9 2 14 4 4 6 10 8 8 9 11 10 7 37 35 53 54 57 57 57 60 62 64 65 65 67 68 70 70 70 70 70 71 73 74 74 74 74 74 74 74 74 74 74 74 73 73 73 73 73 73 73 72 72 72 72 72 71 71 70 70 70 70 69 70 71 72 71 69 67 67 67 68 69 69 70 70 69 69 70 67 67 66 66 66
50 49 49 47 41 36 35 30 27 23 20 17 5 -0 10 10 8 7 10 11 9 8 11 12 6 48 57 57 56 55 56 59 63 65 65 66 67 68 68 69 68 68 69 69 70 73 73 74 74 74 74 74 74 74 74 73 73 73 73 73 73 73 73 73 72 72 72 72 71 71 71 70 70 70 69 69 70 72 71 70 70 68 68 69 70 70 70 70 69 69 69 69 69 67 66 65 66
46 43 43 46 36 40 31 31 25 17 20 16 10 1 7 8 13 12 13 11 10 9 14 13 11 29 56 57 58 57 57 58 64 65 66 66 67 67 67 67 66 67 67 68 71 73 74 74 74 74 74 74 74 74 73 73 73 73 73 73 73 73 73 73 72 72 72 71 71 71 71 70 71 70 70 69 70 71 71 70 69 69 69 70 70 70 70 69 69 69 69 69 69 69 68 66 65
37 39 38 39 35 32 33 30 26 23 21 15 11 3 7 8 9 10 6 9 19 14 15 15 45 56 56 57 59 61 60 63 65 66 66 67 67 68 67 65 65 65 67 69 71 73 74 74 74 74 74 74 74 73 73 73 73 73 73 73 73 73 73 72 72 72 71 71 71 71 70 71 70 70 70 69 70 70 71 70 69 70 70 70 71 71 71 71 71 70 69 69 68 68 68 68 67
43 35 33 28 26 28 26 24 22 21 19 16 7 4 11 7 11 7 7 8 19 12 14 18 22 57 57 59 58 62 66 67 67 67 67 67 68 67 67 65 64 65 67 69 71 73 74 73 74 74 74 74 73 73 73 73 73 73 73 73 73 73 73 72 72 72 72 71 71 71 70 71 70 70 70 70 70 70 70 71 71 72 71 71 71 71 70 70 70 69 69 69 69 68 68 67 68
39 33 37 31 26 23 17 19 18 16 13 11 6 27 29 8 10 12 8 10 5 16 12 18 27 55 56 59 60 63 66 67 67 68 67 67 67 67 67 65 64 66 67 68 71 73 73 73 74 74 74 74 73 73 73 73 73 73 73 73 73 73 73 73 72 72 72 72 72 71 71 71 71 71 71 71 70 70 70 72 72 72 71 71 71 70 70 70 69 69 69 69 69 69 69 68 68
37 31 31 29 26 24 17 13 12 12 10 5 7 9 7 12 9 16 7 8 7 9 18 18 43 56 58 58 60 62 65 68 67 67 67 67 68 68 66 65 65 66 68 70 72 72 73 74 73 73 73 73 73 73 73 73 73 73 73 73 73 72 73 72 72 72 72 72 72 72 72 72 72 72 72 70 70 71 71 72 72 72 71 70 70 70 70 69 69 69 69 69 69 69 69 68 68
32 27 35 32 27 25 20 13 10 11 11 -0 6 8 8 7 9 10 11 9 11 14 17 46 56 58 59 60 60 65 65 68 67 66 67 68 69 66 65 65 65 68 69 70 71 72 72 73 74 73 73 73 73 72 73 73 73 73 72 72 72 73 72 72 72 72 72 72 72 72 72 71 72 72 71 70 71 72 72 71 71 71 71 70 70 70 69 69 69 69 69 69 69 69 69 69 69
31 24 25 24 22 21 18 13 8 6 7 -1 7 11 8 7 10 10 8 9 15 18 14 19 50 59 58 59 60 64 65 67 67 68 69 69 67 67 65 65 68 69 69 69 71 71 72 72 72 73 73 73 73 73 73 73 72 72 72 72 72 72 72 72 72 72 72 72 72 72 72 72 71 71 72 72 72 72 71 71 71 71 70 70 70 70 69 70 70 69 69 69 69 69 69 69 69
28 26 21 19 16 13 10 5 3 17 6 8 8 13 9 8 9 10 10 9 8 13 32 57 59 59 59 60 62 65 65 67 68 69 69 68 67 67 66 67 69 68 68 69 70 71 71 71 71 71 72 73 73 73 73 72 72 72 72 72 72 72 72 72 72 72 72 71 71 71 72 72 72 72 72 72 72 72 71 71 71 70 70 69 70 70 69 69 69 69 69 69 69 69 69 69 69
25 25 24 22 21 15 13 10 6 4 6 8 9 14 14 10 11 12 12 11 8 16 48 58 60 61 60 60 60 62 64 67 68 69 68 68 67 67 67 68 68 68 68 68 69 70 70 70 70 71 71 71 72 72 73 72 72 72 72 72 72 72 72 72 72 72 71 71 71 71 71 71 71 72 72 72 72 71 71 71 70 70 70 70 69 70 70 70 70 69 69 69 69 69 69 69 69
23 25 26 26 16 14 10 9 7 2 6 7 14 24 13 14 12 12 15 13 15 13 38 59 60 57 57 59 59 61 64 66 68 68 69 68 67 69 68 68 68 67 67 68 68 68 68 69 69 70 71 71 71 71 71 71 72 72 72 72 72 72 72 72 72 71 71 72 71 71 71 71 71 71 72 71 71 71 71 71 70 70 70 70 69 69 69 69 70 69 69 69 69 69 69 69 68
18 16 21 25 14 12 10 8 5 3 8 9 13 16 15 12 13 15 18 16 17 15 37 50 55 58 60 60 61 62 63 66 68 69 68 68 68 68 68 68 68 66 67 67 66 67 68 69 69 69 70 70 70 70 70 71 71 72 72 72 72 72 72 71 71 71 71 71 71 71 71 71 71 71 71 71 71 71 71 70 70 70 70 69 69 69 69 69 69 69 69 69 69 69 69 69 70
18 16 16 19 14 13 10 9 5 7 9 10 11 11 9 13 13 15 20 17 14 22 49 50 53 59 60 60 61 63 64 67 68 68 67 67 67 67 68 69 68 68 68 67 65 66 67 68 68 68 69 69 69 70 70 70 71 72 72 72 72 72 72 72 71 71 71 71 70 71 71 70 70 70 70 70 70 71 70 70 69 70 69 69 69 69 70 69 70 70 69 69 69 69 69 69 69
19 20 16 14 13 12 11 5 4 8 7 9 13 14 11 7 8 14 13 14 13 29 51 51 52 55 59 62 63 63 65 67 67 66 66 65 65 65 66 66 65 65 66 67 69 68 68 68 68 68 68 69 69 70 70 71 71 71 71 71 71 72 72 72 71 71 71 70 71 70 69 70 69 69 69 71 70 70 69 70 69 69 69 69 69 69 69 69 69 69 70 69 69 69 69 66 68
15 18 16 10 10 10 8 5 5 5 7 10 13 10 14 12 9 11 9 7 12 16 54 53 53 57 61 62 62 64 65 66 66 65 65 63 62 62 64 64 64 66 66 67 67 68 69 69 69 68 68 68 69 69 70 70 70 70 71 71 71 71 71 71 70 70 70 70 69 69 69 69 69 69 69 69 69 70 69 69 69 69 69 69 69 69 69 69 68 68 69 70 70 70 68 67 66
13 16 13 11 9 7 7 7 10 9 9 8 7 8 9 8 8 11 10 7 8 16 54 55 55 56 61 61 62 64 65 64 62 61 61 61 63 63 63 64 64 65 65 66 67 68 69 68 68 68 67 68 69 69 70 69 69 70 70 70 70 70 70 70 70 69 69 69 69 68 68 69 68 68 70 69 69 69 69 69 69 69 69 69 68 69 68 69 68 67 67 69 70 70 68 67 66
11 11 9 10 9 6 6 7 10 10 10 9 9 8 7 6 11 16 10 9 9 31 53 58 58 58 59 61 62 64 62 60 62 62 61 62 63 64 64 64 64 65 66 67 67 67 68 68 68 68 68 68 68 69 69 69 69 69 69 70 70 69 68 68 69 68 69 68 68 68 68 69 68 68 68 68 68 68 67 67 67 67 67 66 68 65 65 66 67 66 65 66 64 67 67 66 66
11 9 9 9 8 7 5 13 15 12 12 13 12 10 7 5 4 13 12 8 10 28 56 58 59 61 61 61 63 60 60 61 62 61 61 62 62 63 64 64 66 66 67 65 65 67 67 67 67 68 68 67 68 69 68 69 69 69 69 70 69 68 67 67 68 68 68 67 67 68 69 68 68 68 67 67 67 67 67 67 67 66 65 66 68 65 64 63 63 63 64 64 63 62 64 65 67
9 7 7 8 7 5 6 7 13 12 10 11 10 10 6 5 14 14 13 9 9 38 57 57 59 61 62 62 61 60 61 60 60 61 61 61 62 64 64 64 65 65 66 65 66 66 67 67 67 68 67 67 68 68 68 68 67 68 69 69 68 67 67 67 67 68 67 67 67 68 68 68 67 67 67 67 67 67 66 66 66 65 65 64 67 65 64 63 63 62 61 61 60 60 62 64 66
6 5 7 7 8 7 6 5 11 7 9 11 12 8 7 8 10 12 9 8 7 36 56 57 59 61 61 61 60 60 61 60 61 62 62 61 62 64 64 64 65 65 65 66 66 66 67 67 67 67 67 67 67 67 67 67 66 67 68 70 68 68 67 67 67 67 67 67 67 67 68 68 67 67 67 67 67 66 66 65 65 64 64 64 65 65 63 63 62 62 61 60 60 60 60 64 66
3 3 5 5 6 5 5 6 7 12 13 10 10 6 4 8 8 11 7 7 6 38 55 56 58 60 61 61 61 61 61 61 60 62 61 62 62 64 65 65 65 66 65 66 66 66 66 67 67 67 67 66 66 66 66 66 66 67 68 68 68 69 67 67 67 67 67 67 67 67 68 67 67 67 67 67 66 65 66 65 65 63 63 62 63 63 62 62 62 61 61 61 60 60 61 64 67
3 4 5 5 5 4 3 6 8 10 17 11 9 8 7 6 9 6 6 5 5 20 54 55 57 61 61 61 62 61 61 60 60 61 61 62 64 64 64 65 65 65 66 66 66 66 66 67 67 67 66 66 66 66 65 65 66 67 68 68 68 69 67 67 67 67 67 67 67 68 68 67 67 67 67 67 66 66 67 66 65 63 63 61 62 62 63 62 61 61 61 60 59 60 60 65 65
5 6 4 2 2 3 3 2 7 9 8 8 5 5 6 7 7 3 5 4 6 7 51 53 58 61 61 62 62 61 61 60 61 61 61 63 63 63 64 65 64 65 66 65 66 66 67 66 66 66 66 67 67 66 65 65 66 66 67 68 68 67 67 68 67 67 67 67 67 68 68 68 68 67 67 67 67 66 66 66 65 65 65 63 63 64 64 64 63 62 62 61 64 63 62 64 63
5 10 9 8 7 11 12 12 11 8 11 10 11 7 7 6 7 2 2 4 6 4 46 58 60 60 61 62 61 61 61 61 61 60 60 63 62 62 64 65 65 65 65 65 65 66 66 66 66 66 67 67 67 66 66 66 66 66 67 67 68 67 68 67 67 67 67 67 68 68 68 68 68 67 67 66 66 65 66 66 65 65 65 65 65 66 66 65 64 64 66 67 65 65 65 65 64
4 4 2 4 6 6 10 10 10 11 9 11 13 8 4 7 3 3 3 3 3 13 55 58 59 60 61 61 61 61 63 62 62 61 61 63 64 63 64 66 65 64 65 65 65 66 66 66 66 66 67 67 66 65 66 66 66 66 67 67 68 68 67 67 67 67 67 67 67 68 68 68 68 66 66 66 66 66 66 67 65 65 65 66 66 66 66 67 66 65 66 65 64 63 64 65 64
5 4 5 3 4 4 5 7 8 6 8 9 8 5 4 1 2 3 2 3 2 5 56 56 57 58 60 60 60 61 63 61 62 62 63 65 65 64 65 66 65 65 65 66 65 65 65 66 66 67 67 67 66 66 67 66 66 67 68 68 68 67 67 67 67 66 67 67 67 68 68 68 67 66 65 65 65 65 65 65 66 65 66 66 66 65 66 66 66 64 64 64 66 64 65 65 64
6 6 7 9 8 5 5 4 4 4 5 5 5 9 8 5 4 2 3 2 0 10 54 55 55 56 57 56 59 61 62 61 61 63 65 65 65 66 66 66 66 65 65 65 65 65 66 66 66 67 67 67 66 66 67 66 66 67 67 67 67 67 67 67 66 67 67 67 67 67 67 67 67 66 66 65 64 66 65 66 65 65 66 66 66 65 67 65 67 66 64 64 64 64 64 65 64
7 11 7 8 7 5 5 7 5 1 4 4 5 20 5 4 4 3 2 1 1 22 53 54 54 55 54 57 59 61 62 62 63 64 65 64 65 65 67 66 66 65 65 65 65 65 66 66 67 67 68 67 66 65 66 66 66 66 66 68 67 67 67 67 67 67 67 68 68 67 67 67 66 66 66 66 65 65 64 65 66 67 66 65 65 66 66 66 66 65 65 64 63 63 63 64 64
9 11 26 12 6 4 3 4 3 1 1 2 3 6 4 2 3 3 2 -0 0 15 49 54 53 54 55 59 60 61 62 63 63 65 65 64 64 66 67 66 65 65 65 65 65 65 66 67 67 67 67 66 65 65 66 66 66 66 66 66 66 67 68 68 68 68 67 67 67 66 66 66 65 66 66 66 66 65 66 65 65 67 65 65 65 66 66 65 65 64 65 65 64 63 63 63 63
16 8 9 12 8 7 3 1 2 1 2 1 2 2 6 5 5 3 3 0 0 17 33 52 52 54 56 59 60 61 62 62 63 63 65 64 64 66 67 67 65 65 66 65 65 65 66 67 67 67 67 66 66 66 66 66 65 66 66 66 66 66 67 68 68 67 67 67 67 66 66 66 65 65 66 66 65 66 66 65 65 66 66 66 66 65 65 66 65 64 65 64 64 64 63 62 63
14 16 14 11 7 7 4 1 5 1 5 4 5 6 7 6 5 2 4 6 12 21 22 51 53 55 57 58 58 60 61 61 62 63 65 65 66 66 67 65 65 65 65 65 65 65 66 67 67 67 66 67 65 65 65 66 66 66 66 66 66 66 66 66 67 67 67 67 66 66 66 66 66 65 65 66 65 65 65 65 64 65 66 66 64 64 64 65 65 65 65 64 64 64 63 63 64
7 13 12 11 13 10 5 3 3 4 5 5 6 9 6 5 5 8 17 15 16 17 24 50 54 55 56 55 57 59 59 60 62 63 65 65 66 66 66 65 65 65 65 65 65 65 66 67 66 67 66 66 65 65 65 65 65 65 65 65 64 65 65 65 65 66 66 66 66 66 66 66 66 66 64 65 65 64 64 65 64 66 66 66 65 63 63 64 64 64 64 63 63 64 64 64 63
6 5 7 10 9 10 7 7 4 6 5 10 10 12 11 11 11 15 16 16 20 20 19 32 51 54 53 53 54 55 56 58 60 62 64 65 65 66 66 65 65 65 65 65 65 65 66 66 66 66 66 65 64 64 64 64 64 64 64 63 63 64 64 65 65 66 65 66 66 66 66 67 66 67 66 66 65 66 64 65 64 65 66 65 65 64 64 65 64 64 64 63 62 62 62 63 63
11 9 8 9 11 12 13 7 7 9 26 12 19 15 16 15 15 12 16 17 14 16 21 27 48 50 51 52 51 52 54 58 61 62 64 64 65 66 66 65 64 64 65 65 65 65 65 66 66 66 65 64 64 64 64 64 65 64 64 63 63 64 64 64 65 65 65 66 66 66 66 66 66 66 66 66 66 65 65 64 65 64 65 65 65 65 64 65 64 64 63 62 62 62 61 63 63
17 15 12 14 14 15 15 12 9 11 18 16 12 13 17 19 18 16 14 13 16 22 23 22 48 48 48 50 49 50 52 57 59 60 62 63 65 65 65 64 64 64 65 65 65 65 66 66 66 66 64 64 64 64 64 64 65 65 65 64 64 63 65 65 66 65 66 66 66 66 65 65 66 66 67 66 66 66 65 65 65 65 65 65 64 64 64 63 63 63 63 61 61 62 63 63 62
18 18 14 10 14 16 15 22 12 10 16 22 22 16 24 26 24 22 22 18 18 13 6 15 44 49 47 48 48 49 50 55 57 59 60 62 64 65 64 64 64 64 64 65 65 65 65 65 65 64 63 64 63 64 65 64 65 65 66 66 65 64 63 65 66 65 66 65 64 66 66 65 65 65 65 65 65 65 64 64 65 65 65 65 65 64 63 63 63 63 63 62 62 61 61 62 64
31 31 22 20 15 15 14 16 14 27 23 30 19 24 21 21 17 17 16 19 16 11 13 14 19 37 47 48 49 50 49 52 56 60 60 63 63 64 64 64 64 63 64 64 64 64 65 65 65 64 63 63 63 64 64 64 65 65 65 65 65 64 64 64 65 64 64 65 65 65 66 66 65 65 65 64 64 63 65 65 65 65 65 65 65 64 63 63 63 63 63 62 61 60 60 60 61
25 32 26 20 17 16 13 14 12 20 18 31 14 13 20 23 18 15 15 16 14 16 13 11 11 20 25 47 48 50 51 50 55 59 60 63 62 61 61 61 62 63 63 64 64 64 64 65 65 64 63 63 63 64 64 62 63 64 64 63 62 62 61 61 62 63 64 64 64 65 65 66 64 64 64 63 64 64 66 65 65 65 65 65 64 64 64 63 63 63 63 63 62 61 61 61 60
20 23 20 17 15 14 11 8 10 12 12 21 27 13 16 19 19 19 18 14 12 15 19 11 13 25 35 35 46 50 50 50 54 57 60 62 60 60 60 61 61 61 61 64 64 64 64 65 64 64 63 64 64 64 64 63 62 63 64 63 63 62 61 61 62 63 64 64 64 64 64 65 65 65 64 64 64 65 65 65 65 65 65 64 65 64 63 63 62 62 63 63 62 62 61 60 61
17 24 15 13 11 11 11 7 5 12 24 25 25 13 10 12 16 16 13 17 22 39 39 39 41 44 45 44 44 49 50 49 54 56 60 61 60 60 60 60 61 60 61 63 63 64 64 65 64 64 64 64 63 64 64 64 63 63 64 63 63 62 61 61 63 63 63 64 64 64 65 64 64 65 65 64 64 65 65 65 65 65 65 64 65 64 63 63 63 62 63 62 62 62 62 61 61
17 16 13 11 8 11 7 6 13 18 17 13 17 16 10 12 17 15 13 14 36 39 39 39 41 43 44 46 48 46 49 51 57 59 60 61 60 60 59 58 58 60 60 63 63 64 64 64 64 64 64 64 64 64 63 63 63 63 63 63 62 63 62 63 63 63 64 64 64 64 64 65 65 65 63 63 63 64 65 65 65 65 64 64 64 64 64 64 63 62 62 63 62 62 62 62 62
11 10 11 11 10 10 17 22 15 20 15 17 18 24 8 11 24 16 28 37 38 40 40 40 42 45 46 48 52 54 54 56 57 59 60 61 60 60 61 60 59 58 59 62 63 63 64 64 64 63 63 63 63 63 63 63 63 63 63 64 63 64 63 63 64 63 62 63 64 64 64 64 63 63 64 63 63 64 64 64 64 64 64 63 63 63 63 63 63 63 62 63 63 63 63 63 61
11 9 9 9 9 11 20 23 18 18 11 17 22 27 13 9 17 31 37 38 40 40 41 43 45 48 49 50 51 54 56 57 57 58 59 60 60 60 60 60 59 59 60 62 63 64 64 63 63 62 63 63 63 62 62 62 63 63 63 64 63 63 63 63 63 63 63 63 63 64 64 63 63 63 63 62 63 63 63 63 63 63 63 63 62 61 61 62 63 63 63 63 63 63 63 62 62
7 16 14 16 19 19 19 22 19 10 13 16 12 12 27 11 21 35 38 43 44 44 45 46 49 50 50 50 51 54 56 58 58 57 58 58 59 59 60 60 59 59 60 62 60 60 61 62 63 62 62 62 62 62 62 62 63 64 64 64 63 63 63 63 62 62 63 62 62 63 64 63 63 63 63 62 62 62 63 63 63 62 63 62 62 61 61 63 63 63 63 63 63 63 63 63 62
12 15 13 15 14 16 15 12 11 11 12 16 11 7 7 18 32 36 41 43 45 46 46 47 50 52 52 51 51 54 55 56 57 57 58 59 59 59 58 59 60 60 60 59 60 60 61 61 62 61 61 61 62 62 62 62 63 63 63 64 63 63 63 63 62 62 63 61 61 62 63 62 62 62 62 61 62 62 62 62 62 62 62 62 62 62 62 63 63 63 63 63 63 62 62 62 62
12 12 18 13 10 10 6 14 14 13 15 20 18 22 16 32 35 37 39 42 44 46 47 50 52 53 53 53 54 54 54 55 56 57 57 57 58 58 59 59 59 58 59 59 59 59 60 61 61 61 61 61 61 61 62 62 62 63 63 63 63 63 63 63 62 62 63 62 62 62 62 61 61 61 61 61 63 62 62 62 62 62 62 62 62 62 62 63 63 63 63 62 62 62 62 62 62
9 11 10 19 14 15 7 8 7 10 14 24 22 19 18 22 33 41 43 43 44 46 49 51 52 51 52 53 54 55 55 55 56 56 55 56 57 57 57 58 58 58 59 59 58 59 61 61 61 61 61 61 61 61 61 61 62 62 63 63 63 63 64 64 63 63 63 63 62 61 61 61 61 61 61 62 61 62 62 62 61 62 61 61 61 62 63 63 63 63 62 62 62 62 62 61 61
12 10 9 13 17 16 9 15 14 16 16 22 20 20 33 33 38 43 45 45 45 47 49 50 49 51 51 51 52 53 54 54 55 56 55 55 56 57 57 56 57 58 59 59 59 59 60 60 61 61 61 61 62 61 61 61 62 62 62 62 63 63 63 63 62 61 62 63 62 61 61 61 61 61 62 61 61 61 61 61 62 61 61 61 61 61 62 62 62 62 63 62 62 63 62 61 61
23 11 12 12 18 15 14 16 23 18 22 15 20 30 37 38 38 41 44 45 46 47 48 49 50 50 50 51 51 52 53 54 55 55 56 57 57 58 58 58 56 58 58 58 59 59 59 60 60 61 62 62 62 62 61 60 61 61 62 61 61 62 63 62 62 61 61 61 62 62 61 61 61 61 62 61 61 61 60 61 60 61 60 60 60 61 61 62 62 61 61 62 61 62 62 62 61
14 15 16 14 13 18 15 12 15 13 13 14 19 19 32 32 29 37 41 44 46 47 47 48 50 51 51 51 52 53 53 54 55 55 56 57 56 56 57 59 59 58 59 59 59 60 59 61 61 61 60 60 61 62 61 61 61 61 61 61 60 61 62 62 62 61 61 61 62 62 61 61 61 61 61 61 61 60 60 63 60 60 60 61 60 60 60 61 61 61 62 61 62 62 62 62 62
11 12 18 22 16 10 19 8 8 10 11 15 20 32 33 35 32 38 42 45 46 47 47 48 49 50 51 51 52 53 54 54 55 56 56 56 57 57 56 57 59 59 59 58 59 60 60 60 61 61 60 60 60 62 62 62 61 61 61 61 61 60 60 61 61 61 61 61 61 61 61 61 61 60 60 61 60 59 61 60 59 59 60 59 59 59 60 60 60 61 61 61 61 61 62 62 62
13 14 11 19 24 23 16 14 14 18 16 12 14 30 26 38 38 42 43 46 46 46 46 48 50 51 51 51 52 53 53 53 53 54 55 55 55 57 58 58 59 59 59 58 58 58 59 61 61 61 61 62 62 61 61 62 61 61 61 61 61 61 60 61 61 61 61 61 62 60 60 60 59 59 60 59 58 59 60 59 59 59 59 58 59 58 59 59 60 61 61 61 61 61 61 61 62
15 15 15 14 25 28 18 29 15 18 16 18 20 24 28 39 45 44 45 46 46 47 48 49 49 50 50 51 51 51 51 51 52 53 53 54 54 54 55 57 58 59 59 59 59 60 60 61 60 60 60 60 60 61 61 62 63 62 61 61 61 61 60 60 60 60 60 61 61 60 60 60 59 59 59 58 58 58 59 58 58 58 58 58 58 56 58 58 60 60 60 60 61 61 60 60 61
20 20 22 13 14 16 11 19 21 19 15 18 21 25 36 43 46 46 47 48 48 49 49 49 49 49 50 50 50 50 49 49 49 51 52 52 52 52 53 53 55 58 58 59 60 59 59 60 61 60 60 60 60 60 61 61 63 62 61 61 61 60 61 60 60 60 60 61 60 59 59 59 59 59 59 58 57 58 58 58 58 57 58 58 56 57 58 56 57 56 56 59 60 59 59 59 59